When you browse on this site, cookies collect data to enhance your experience and personalize the content and advertising you see.
Visit our Privacy Policy to learn more. By continuing to use the site, you agree to this use of cookies and data.
  • In Czech Republic
  • List of Countries
  • For 7 days
  • Water Temperature
  • Weather Map
  • Weather Widgets
  • user-avatar
    Login

    Hourly Weather Ali Bayramli

    Today, 25 February, Tuesday

    Time Temperature Precipitation Wind Pressure Humidity
    00:00 +8°C° 0 mm 2 mps 752 mmHg 94%
    01:00 +8°C° 0 mm 3 mps 751 mmHg 91%
    02:00 +8°C° 0 mm 3 mps 750 mmHg 89%
    03:00 +8°C° 0 mm 3 mps 750 mmHg 84%
    04:00 +7°C° 0 mm 4 mps 750 mmHg 80%
    05:00 +7°C° 0 mm 5 mps 750 mmHg 75%
    06:00 +7°C° 0 mm 5 mps 750 mmHg 71%
    07:00 +9°C° 0 mm 6 mps 750 mmHg 62%
    08:00 +10°C° 0 mm 7 mps 750 mmHg 54%
    09:00 +12°C° 0 mm 7 mps 751 mmHg 44%
    10:00 +15°C° 0 mm 7 mps 751 mmHg 41%
    11:00 +16°C° 0 mm 7 mps 752 mmHg 37%
    12:00 +19°C° 0 mm 6 mps 752 mmHg 34%
    13:00 +17°C° 0 mm 7 mps 753 mmHg 35%
    14:00 +16°C° 0 mm 7 mps 753 mmHg 37%
    15:00 +15°C° 0 mm 8 mps 753 mmHg 39%
    16:00 +12°C° 0 mm 8 mps 755 mmHg 41%
    17:00 +10°C° 0 mm 7 mps 756 mmHg 43%
    18:00 +9°C° 0 mm 7 mps 758 mmHg 45%
    19:00 +8°C° 0.1 mm 7 mps 759 mmHg 50%
    20:00 +6°C° 0.1 mm 7 mps 760 mmHg 55%
    21:00 +7°C° 0.1 mm 6 mps 761 mmHg 60%
    22:00 +6°C° 0 mm 5 mps 761 mmHg 60%
    23:00 +7°C° 0 mm 3 mps 762 mmHg 61%

    Tomorrow, 26 February, Wednesday

    Time Temperature Precipitation Wind Pressure Humidity
    00:00 +8°C° 0 mm 1 mps 762 mmHg 61%
    01:00 +7°C° 0 mm 2 mps 762 mmHg 61%
    02:00 +6°C° 0 mm 2 mps 762 mmHg 62%
    03:00 +5°C° 0 mm 3 mps 763 mmHg 62%
    04:00 +6°C° 0 mm 2 mps 763 mmHg 64%
    05:00 +5°C° 0 mm 2 mps 763 mmHg 67%
    06:00 +6°C° 0 mm 1 mps 764 mmHg 69%
    07:00 +6°C° 0 mm 2 mps 764 mmHg 61%
    08:00 +7°C° 0 mm 2 mps 765 mmHg 54%
    09:00 +8°C° 0 mm 2 mps 765 mmHg 46%
    10:00 +9°C° 0 mm 2 mps 765 mmHg 44%
    11:00 +10°C° 0 mm 3 mps 765 mmHg 42%
    12:00 +10°C° 0 mm 3 mps 765 mmHg 40%
    13:00 +10°C° 0 mm 3 mps 765 mmHg 40%
    14:00 +11°C° 0 mm 3 mps 764 mmHg 40%
    15:00 +11°C° 0 mm 3 mps 764 mmHg 40%
    16:00 +10°C° 0 mm 4 mps 764 mmHg 42%
    17:00 +8°C° 0 mm 4 mps 764 mmHg 43%
    18:00 +8°C° 0 mm 5 mps 764 mmHg 45%
    19:00 +7°C° 0 mm 4 mps 764 mmHg 50%
    20:00 +6°C° 0 mm 4 mps 765 mmHg 56%
    21:00 +7°C° 0 mm 3 mps 765 mmHg 61%
    22:00 +5°C° 0 mm 3 mps 764 mmHg 65%
    23:00 +5°C° 0 mm 4 mps 764 mmHg 70%

    Day after tomorrow, 27 February, Thursday

    Time Temperature Precipitation Wind Pressure Humidity
    00:00 +5°C° 0 mm 4 mps 764 mmHg 74%
    01:00 +5°C° 0 mm 4 mps 763 mmHg 76%
    02:00 +4°C° 0 mm 4 mps 763 mmHg 77%
    03:00 +4°C° 0 mm 3 mps 763 mmHg 79%
    04:00 +4°C° 0 mm 3 mps 763 mmHg 80%
    05:00 +4°C° 0 mm 3 mps 762 mmHg 81%
    06:00 +4°C° 0 mm 3 mps 762 mmHg 83%
    07:00 +5°C° 0 mm 3 mps 763 mmHg 77%
    08:00 +6°C° 0 mm 4 mps 763 mmHg 71%
    09:00 +8°C° 0 mm 4 mps 763 mmHg 65%
    10:00 +10°C° 0 mm 4 mps 762 mmHg 59%
    11:00 +10°C° 0 mm 5 mps 762 mmHg 53%
    12:00 +13°C° 0 mm 5 mps 762 mmHg 47%
    13:00 +13°C° 0 mm 5 mps 761 mmHg 48%
    14:00 +13°C° 0 mm 6 mps 761 mmHg 49%
    15:00 +13°C° 0 mm 6 mps 760 mmHg 49%
    16:00 +11°C° 0 mm 6 mps 760 mmHg 55%
    17:00 +10°C° 0 mm 6 mps 760 mmHg 61%
    18:00 +9°C° 0 mm 6 mps 759 mmHg 67%
    19:00 +8°C° 0 mm 5 mps 759 mmHg 71%
    20:00 +7°C° 0 mm 5 mps 759 mmHg 74%
    21:00 +7°C° 0 mm 4 mps 759 mmHg 78%
    22:00 +8°C° 0 mm 3 mps 758 mmHg 80%
    23:00 +7°C° 0 mm 3 mps 758 mmHg 82%

    28 February, Friday

    Time Temperature Precipitation Wind Pressure Humidity
    00:00 +7°C° 0 mm 3 mps 757 mmHg 85%
    01:00 +7°C° 0 mm 2 mps 757 mmHg 86%
    02:00 +7°C° 0 mm 2 mps 756 mmHg 87%
    03:00 +6°C° 0 mm 2 mps 756 mmHg 88%
    04:00 +6°C° 0 mm 2 mps 755 mmHg 88%
    05:00 +6°C° 0 mm 2 mps 755 mmHg 88%
    06:00 +6°C° 0 mm 1 mps 754 mmHg 87%
    07:00 +8°C° 0 mm 1 mps 754 mmHg 80%
    08:00 +8°C° 0 mm 2 mps 754 mmHg 72%
    09:00 +10°C° 0 mm 2 mps 753 mmHg 64%
    10:00 +11°C° 0 mm 3 mps 753 mmHg 56%
    11:00 +13°C° 0 mm 3 mps 752 mmHg 48%
    12:00 +14°C° 0 mm 4 mps 752 mmHg 39%
    13:00 +15°C° 0 mm 5 mps 751 mmHg 36%
    14:00 +16°C° 0 mm 5 mps 751 mmHg 34%
    15:00 +17°C° 0 mm 6 mps 751 mmHg 31%
    16:00 +16°C° 0 mm 5 mps 751 mmHg 34%
    17:00 +15°C° 0 mm 5 mps 751 mmHg 38%
    18:00 +14°C° 0 mm 4 mps 751 mmHg 42%
    19:00 +13°C° 0 mm 4 mps 752 mmHg 43%
    20:00 +12°C° 0 mm 3 mps 752 mmHg 45%
    21:00 +12°C° 0 mm 3 mps 753 mmHg 46%
    22:00 +12°C° 0 mm 3 mps 753 mmHg 45%
    23:00 +11°C° 0 mm 3 mps 754 mmHg 44%

    29 February, Saturday

    Time Temperature Precipitation Wind Pressure Humidity
    00:00 +11°C° 0 mm 3 mps 754 mmHg 43%
    01:00 +10°C° 0 mm 3 mps 755 mmHg 47%
    02:00 +10°C° 0 mm 2 mps 755 mmHg 51%
    03:00 +10°C° 0 mm 1 mps 756 mmHg 55%
    04:00 +9°C° 0 mm 2 mps 757 mmHg 57%
    05:00 +8°C° 0 mm 2 mps 757 mmHg 59%
    06:00 +8°C° 0 mm 3 mps 758 mmHg 61%
    07:00 +10°C° 0 mm 3 mps 758 mmHg 58%
    08:00 +11°C° 0 mm 3 mps 758 mmHg 56%
    09:00 +12°C° 0 mm 4 mps 758 mmHg 53%
    10:00 +13°C° 0 mm 4 mps 758 mmHg 50%
    11:00 +14°C° 0 mm 5 mps 757 mmHg 47%
    12:00 +14°C° 0 mm 5 mps 756 mmHg 44%
    13:00 +14°C° 0 mm 5 mps 755 mmHg 46%
    14:00 +14°C° 0 mm 5 mps 755 mmHg 47%
    15:00 +14°C° 0 mm 5 mps 754 mmHg 49%
    16:00 +13°C° 0 mm 5 mps 754 mmHg 56%
    17:00 +10°C° 0 mm 5 mps 753 mmHg 63%
    18:00 +10°C° 0 mm 4 mps 753 mmHg 70%
    19:00 +10°C° 0 mm 4 mps 753 mmHg 74%
    20:00 +9°C° 0 mm 3 mps 753 mmHg 78%
    21:00 +9°C° 0 mm 2 mps 753 mmHg 82%
    22:00 +9°C° 0 mm 2 mps 752 mmHg 84%
    23:00 +9°C° 0 mm 1 mps 752 mmHg 86%

    1 March, Sunday

    Time Temperature Precipitation Wind Pressure Humidity
    00:00 +9°C° 0 mm 1 mps 751 mmHg 88%
    01:00 +9°C° 0 mm 1 mps 751 mmHg 89%
    02:00 +9°C° 0 mm 1 mps 751 mmHg 91%
    03:00 +7°C° 0 mm 2 mps 751 mmHg 92%
    04:00 +7°C° 0 mm 3 mps 751 mmHg 92%
    05:00 +7°C° 0 mm 3 mps 751 mmHg 92%
    06:00 +6°C° 0 mm 4 mps 751 mmHg 92%
    07:00 +7°C° 0 mm 4 mps 752 mmHg 81%
    08:00 +8°C° 0 mm 4 mps 752 mmHg 70%
    09:00 +10°C° 0 mm 4 mps 753 mmHg 59%
    10:00 +11°C° 0 mm 4 mps 753 mmHg 56%
    11:00 +12°C° 0 mm 4 mps 753 mmHg 53%
    12:00 +13°C° 0 mm 3 mps 753 mmHg 50%
    13:00 +13°C° 0 mm 4 mps 753 mmHg 49%
    14:00 +13°C° 0 mm 5 mps 754 mmHg 48%
    15:00 +14°C° 0 mm 6 mps 754 mmHg 47%
    16:00 +11°C° 0.1 mm 6 mps 755 mmHg 50%
    17:00 +10°C° 0.1 mm 7 mps 755 mmHg 53%
    18:00 +8°C° 0.1 mm 7 mps 756 mmHg 55%
    19:00 +8°C° 0.9 mm 6 mps 757 mmHg 61%
    20:00 +7°C° 0.9 mm 5 mps 758 mmHg 67%
    21:00 +6°C° 0.9 mm 4 mps 759 mmHg 72%
    22:00 +6°C° 0.4 mm 5 mps 760 mmHg 73%
    23:00 +5°C° 0.4 mm 6 mps 760 mmHg 74%
    Show more